K4FB Weather Reports


time (UTC)temp
C
wind
direction
speed
KPH
gust
KPH
rain 1hr
cm
rain 24hr
cm
rain mn
cm
humidity
%
barometer
mb
20260904013509 24 102 0.0 0.0 0.00 4.19 4.19 93 1015.5
20260904013032 24 100 0.0 0.0 0.00 4.19 4.19 93 1015.5
20260904012507 24 138 0.0 0.0 0.00 4.19 4.19 93 1015.6
20260904012010 24 138 0.0 0.0 0.00 4.19 4.19 93 1015.6
20260904011527 24 138 0.0 0.0 0.00 4.19 4.19 93 1015.6
20260904011008 24 138 0.0 1.6 0.00 4.19 4.19 93 1015.6
20260904010506 25 113 0.0 1.6 0.00 4.19 4.19 93 1015.6
20260904010029 25 124 0.0 1.6 0.00 4.19 4.19 93 1015.6
20260904005506 25 108 0.0 1.6 0.00 4.19 4.19 93 1015.5
20260904005005 25 76 0.0 0.0 0.00 4.19 4.19 93 1015.4
20260904004516 25 138 0.0 0.0 0.00 4.19 4.19 93 1015.3
20260904004006 25 68 0.0 0.0 0.00 4.19 4.19 93 1015.2
20260904003506 25 68 0.0 0.0 0.00 4.19 4.19 93 1015.0
20260904003019 25 66 0.0 0.0 0.00 4.19 4.19 93 1014.8
20260904002508 25 72 0.0 0.0 0.03 4.19 4.19 93 1015.0
20260904002010 25 72 0.0 0.0 0.03 4.19 4.19 93 1015.0
20260904001517 25 125 0.0 0.0 0.03 4.19 4.19 93 1015.1
20260904001008 25 159 0.0 0.0 0.03 4.19 4.19 93 1015.1
20260904000513 25 159 0.0 0.0 0.03 4.19 4.19 93 1015.3
20260904000029 25 159 0.0 0.0 0.03 4.19 4.19 93 1015.1
20260903235504 25 159 0.0 0.0 0.03 4.19 4.19 92 1015.0
20260903235012 25 131 0.0 0.0 0.05 4.19 4.19 92 1015.0
20260903234529 25 131 0.0 1.6 0.05 4.19 4.19 92 1015.0
20260903234004 25 98 0.0 4.8 0.08 4.19 4.19 93 1015.0
20260903233509 25 106 0.0 4.8 0.08 4.19 4.19 92 1015.0
20260903233020 25 94 0.0 3.2 0.08 4.19 4.19 92 1015.0
20260903232509 25 93 0.0 1.6 0.05 4.17 4.17 1015.1
20260903232006 25 33 0.0 0.0 0.05 4.19 4.17 1014.9
20260903231528 25 67 0.0 0.0 0.05 4.19 4.17 1015.0
20260903231016 25 45 0.0 0.0 0.05 4.19 4.17 1014.9
20260903230506 25 44 0.0 0.0 0.05 4.19 4.17 1014.9
20260903230045 25 44 0.0 0.0 0.05 4.19 4.17 1015.1
20260903225515 25 44 0.0 0.0 0.25 4.19 4.17 1015.0
20260903225014 25 45 0.0 0.0 0.79 4.17 4.14 1015.0
20260903224514 25 45 0.0 0.0 1.04 4.17 4.14 1015.0
20260903224013 24 45 0.0 0.0 1.42 4.14 4.11 1014.9
20260903223514 24 45 0.0 0.0 1.75 4.17 4.11 1014.8
20260903223014 24 45 0.0 0.0 2.21 4.19 4.11 1014.8
20260903222505 24 45 0.0 0.0 2.79 4.19 4.11 1014.8
20260903222007 24 45 0.0 0.0 3.56 4.19 4.11 90 1014.8
20260903221519 24 45 0.0 0.0 4.09 4.22 4.11 90 1014.9
20260903221012 24 45 0.0 0.0 4.11 4.24 4.11 90 1014.7
20260903220512 24 45 0.0 1.6 4.11 4.27 4.11 90 1014.8
20260903220007 24 45 0.0 1.6 4.11 4.29 4.11 90 1014.7
20260903215504 24 39 0.0 1.6 3.91 4.11 3.91 90 1014.4
20260903215010 23 338 0.0 1.6 3.35 3.58 3.35 88 1014.5
20260903214516 24 75 0.0 3.2 3.10 3.33 3.10 88 1014.9
20260903214005 24 66 0.0 6.4 2.67 2.92 2.67 87 1014.8
20260903213505 24 248 0.0 19.3 2.36 2.62 2.36 86 1014.6
20260903213008 25 219 6.4 25.7 1.91 2.16 1.91 85 1014.3
20260903212505 25 205 16.1 25.7 1.32 1.57 1.32 81 1014.4
20260903212005 26 198 9.7 35.4 0.56 0.86 0.56 79 1014.5
20260903211518 28 194 16.1 40.2 0.03 0.48 0.03 74 1014.3
20260903211008 31 167 16.1 40.2 0.00 0.79 0.00 70 1013.7
20260903210505 32 150 8.0 19.3 0.00 1.40 0.00 72 1013.7
20260903210016 32 76 4.8 19.3 0.00 2.26 0.00 71 1013.5
20260903205512 32 75 6.4 14.5 0.00 2.87 0.00 70 1012.9
20260903205004 33 97 1.6 9.7 0.00 2.87 0.00 70 1012.6
20260903204512 33 54 1.6 14.5 0.00 2.87 0.00 69 1012.7
20260903204007 33 53 3.2 17.7 0.00 2.87 0.00 68 1012.9
20260903203503 34 52 6.4 17.7 0.00 2.87 0.00 68 1013.2
20260903203007 34 60 8.0 17.7 0.00 2.87 0.00 68 1013.4
20260903202503 33 30 6.4 22.5 0.00 2.87 0.00 67 1013.4
20260903202004 34 90 8.0 22.5 0.00 2.87 0.00 67 1013.4
20260903201512 33 24 4.8 16.1 0.00 2.87 0.00 68 1013.4
20260903201004 33 24 6.4 17.7 0.00 2.87 0.00 68 1013.3
20260903200506 34 45 6.4 17.7 0.00 2.87 0.00 67 1013.4
20260903200021 34 55 4.8 16.1 0.00 2.87 0.00 68 1013.4
20260903195504 34 49 4.8 16.1 0.00 2.87 0.00 67 1013.7
20260903195006 35 30 3.2 12.9 0.00 2.87 0.00 65 1013.8
20260903194527 35 26 1.6 19.3 0.00 2.87 0.00 65 1013.7
20260903194014 35 71 8.0 19.3 0.00 2.87 0.00 63 1013.7
20260903193504 36 64 6.4 16.1 0.00 2.87 0.00 61 1013.9
20260903193025 36 47 0.0 4.8 0.00 2.87 0.00 60 1014.1
20260903192516 36 181 0.0 1.6 0.00 2.87 0.00 64 1014.1
20260903192003 35 165 0.0 1.6 0.00 2.87 0.00 61 1014.2
20260903191511 35 205 0.0 3.2 0.00 2.87 0.00 60 1014.3
20260903191005 35 207 0.0 6.4 0.00 2.87 0.00 59 1014.3
20260903190506 35 195 0.0 9.7 0.00 2.87 0.00 64 1014.4
20260903190015 35 201 0.0 9.7 0.00 2.87 0.00 64 1014.4
20260903185507 35 163 0.0 9.7 0.00 2.87 0.00 65 1014.4
20260903185010 35 223 3.2 9.7 0.00 2.87 0.00 63 1014.4
20260903184509 35 155 0.0 8.0 0.00 2.87 0.00 65 1014.4
20260903184007 35 186 1.6 8.0 0.00 2.87 0.00 65 1014.2
20260903183514 35 213 0.0 4.8 0.00 2.87 0.00 66 1014.3
20260903183030 35 149 0.0 9.7 0.00 2.87 0.00 64 1014.4
20260903182507 35 142 1.6 9.7 0.00 2.87 0.00 66 1014.4
20260903182007 34 194 0.0 8.0 0.00 2.87 0.00 69 1014.4
20260903181527 34 183 1.6 6.4 0.00 2.87 0.00 70 1014.5
20260903181016 34 213 0.0 11.3 0.00 2.87 0.00 70 1014.5
20260903180504 33 188 1.6 11.3 0.00 2.87 0.00 69 1014.6
20260903180035 33 79 0.0 11.3 0.00 2.87 0.00 67 1014.9
20260903175505 33 195 0.0 11.3 0.00 2.87 0.00 71 1015.0
20260903175003 33 205 0.0 11.3 0.00 2.87 0.00 69 1015.0
20260903174520 33 181 0.0 11.3 0.00 2.87 0.00 70 1015.1
20260903174011 33 197 0.0 3.2 0.00 2.87 0.00 71 1015.0
20260903173511 33 203 0.0 8.0 0.00 2.87 0.00 68 1015.1
20260903173018 33 198 1.6 8.0 0.00 2.87 0.00 70 1015.3
20260903172510 33 105 0.0 6.4 0.00 2.87 0.00 70 1015.3
20260903172013 33 103 0.0 4.8 0.00 2.87 0.00 71 1015.4
20260903171513 33 173 0.0 3.2 0.00 2.87 0.00 69 1015.5
20260903171007 33 184 0.0 4.8 0.00 2.87 0.00 68 1015.5
20260903170515 33 112 0.0 4.8 0.00 2.87 0.00 71 1015.5
20260903165504 33 97 0.0 11.3 0.00 2.87 0.00 70 1015.5
20260903165007 33 97 0.0 11.3 0.00 2.87 0.00 73 1015.5
20260903164518 33 195 0.0 3.2 0.00 2.87 0.00 74 1015.7
20260903164007 33 141 0.0 3.2 0.00 2.87 0.00 74 1015.8
20260903163510 33 140 0.0 1.6 0.00 2.87 0.00 75 1015.8
20260903163023 32 75 0.0 3.2 0.00 2.87 0.00 74 1016.0
20260903162511 32 196 0.0 3.2 0.00 2.87 0.00 76 1015.9
20260903162007 32 161 0.0 3.2 0.00 2.87 0.00 77 1016.1
20260903161529 32 83 0.0 3.2 0.00 2.87 0.00 77 1016.2
20260903161011 32 103 0.0 3.2 0.00 2.87 0.00 76 1016.1
20260903160517 31 99 0.0 1.6 0.00 2.87 0.00 77 1016.2
20260903160030 31 122 0.0 1.6 0.00 2.87 0.00 79 1016.4
20260903155512 31 23 0.0 1.6 0.00 2.87 0.00 78 1016.3
20260903155015 31 166 0.0 1.6 0.00 2.87 0.00 80 1016.3
20260903154516 31 180 0.0 0.0 0.00 2.87 0.00 80 1016.4
20260903154010 30 171 0.0 0.0 0.00 2.87 0.00 81 1016.4
20260903153510 30 130 0.0 0.0 0.00 2.87 0.00 81 1016.3
20260903153020 30 111 0.0 0.0 0.00 2.87 0.00 82 1016.3
20260903152510 30 107 0.0 1.6 0.00 2.87 0.00 83 1016.4
20260903152012 30 44 0.0 1.6 0.00 2.87 0.00 83 1016.5
20260903151527 29 146 0.0 0.0 0.00 2.87 0.00 84 1016.5
20260903151006 29 79 0.0 0.0 0.00 2.87 0.00 83 1016.4
20260903150513 29 175 0.0 0.0 0.00 2.87 0.00 84 1016.6
20260903150038 29 178 0.0 0.0 0.00 2.87 0.00 84 1016.6
20260903145517 29 164 0.0 0.0 0.00 2.87 0.00 85 1016.5
20260903145008 29 204 0.0 0.0 0.00 2.87 0.00 87 1016.3
20260903144530 28 133 0.0 0.0 0.00 2.87 0.00 87 1016.3
20260903144015 28 72 0.0 0.0 0.00 2.87 0.00 88 1016.5
20260903143507 28 61 0.0 0.0 0.00 2.87 0.00 88 1016.5
20260903143018 28 84 0.0 0.0 0.00 2.87 0.00 89 1016.4
20260903142507 28 97 0.0 0.0 0.00 2.87 0.00 89 1016.4
20260903142012 28 76 0.0 3.2 0.00 2.87 0.00 89 1016.4
20260903141526 27 68 0.0 3.2 0.00 2.87 0.00 91 1016.4
20260903141010 27 103 0.0 1.6 0.00 2.87 0.00 91 1016.4
20260903140514 27 130 0.0 1.6 0.00 2.87 0.00 91 1016.3
20260903140022 27 171 0.0 1.6 0.00 2.87 0.00 91 1016.4
20260903135511 27 142 0.0 1.6 0.00 2.87 0.00 92 1016.5
20260903135013 27 82 0.0 1.6 0.00 2.87 0.00 92 1016.4
20260903134538 27 92 0.0 1.6 0.00 2.87 0.00 92 1016.4
20260903134011 27 78 0.0 0.0 0.00 2.87 0.00 93 1016.3
20260903133520 26 98 0.0 0.0 0.00 2.87 0.00 93 1016.3
20260903133031 26 55 0.0 0.0 0.00 2.87 0.00 94 1016.1
20260903132519 26 97 0.0 1.6 0.00 2.87 0.00 94 1016.2
20260903132012 26 92 0.0 1.6 0.00 2.87 0.00 94 1016.2
20260903131521 26 120 0.0 1.6 0.00 2.87 0.00 95 1016.1
20260903131012 26 130 0.0 0.0 0.00 2.87 0.00 95 1016.1
20260903130511 26 116 0.0 1.6 0.00 2.87 0.00 95 1016.1
20260903130004 26 96 0.0 1.6 0.00 2.87 0.00 95 1016.0
20260903125504 26 146 0.0 0.0 0.00 2.87 0.00 95 1015.9
20260903125003 26 161 0.0 0.0 0.00 2.87 0.00 95 1015.9
20260903124504 26 161 0.0 0.0 0.00 2.87 0.00 95 1015.9
20260903124003 26 161 0.0 0.0 0.00 2.87 0.00 95 1016.0
20260903123503 26 165 0.0 0.0 0.00 2.87 0.00 95 1016.0
20260903123028 25 165 0.0 0.0 0.00 2.87 0.00 95 1016.0
20260903122504 25 161 0.0 0.0 0.00 2.87 0.00 95 1016.0
20260903122006 25 161 0.0 0.0 0.00 2.87 0.00 95 1015.9
20260903121520 25 154 0.0 0.0 0.00 2.87 0.00 95 1015.9
20260903121010 25 200 0.0 0.0 0.00 2.87 0.00 95 1015.9
20260903120504 25 200 0.0 0.0 0.00 2.87 0.00 95 1015.8
20260903120017 25 200 0.0 0.0 0.00 2.87 0.00 1015.6
20260903115508 25 200 0.0 0.0 0.00 2.87 0.00 1015.4
20260903115003 25 200 0.0 0.0 0.00 2.87 0.00 95 1015.4
20260903114508 25 236 0.0 0.0 0.00 2.87 0.00 95 1015.3
20260903114004 25 266 0.0 0.0 0.00 2.87 0.00 95 1015.2
20260903113502 25 360 0.0 0.0 0.00 2.87 0.00 95 1015.1
20260903113020 25 360 0.0 0.0 0.00 2.87 0.00 95 1015.0
20260903112504 25 360 0.0 0.0 0.00 2.87 0.00 95 1015.0
20260903112005 25 360 0.0 0.0 0.00 2.87 0.00 95 1014.9
20260903111509 25 360 0.0 0.0 0.00 2.87 0.00 95 1014.9
20260903111004 25 360 0.0 0.0 0.00 2.87 0.00 95 1014.8
20260903110507 25 360 0.0 0.0 0.00 2.87 0.00 95 1014.8
20260903110028 25 352 0.0 0.0 0.00 2.87 0.00 95 1014.6
20260903105504 25 352 0.0 0.0 0.00 2.87 0.00 95 1014.6
20260903105007 25 352 0.0 0.0 0.00 2.87 0.00 94 1014.4
20260903104530 25 352 0.0 0.0 0.00 2.87 0.00 95 1014.5
20260903104011 25 352 0.0 0.0 0.00 2.87 0.00 95 1014.4
20260903103503 25 352 0.0 0.0 0.00 2.87 0.00 95 1014.4
20260903103008 25 24 0.0 0.0 0.00 2.87 0.00 95 1014.3
20260903102504 25 66 0.0 0.0 0.00 2.87 0.00 95 1014.2
20260903102003 25 62 0.0 0.0 0.00 2.87 0.00 95 1014.1
20260903101516 25 61 0.0 0.0 0.00 2.87 0.00 95 1014.2
20260903101007 25 78 0.0 0.0 0.00 2.87 0.00 95 1014.2
20260903100507 25 68 0.0 0.0 0.00 2.87 0.00 95 1014.2
20260903100023 25 59 0.0 0.0 0.00 2.87 0.00 95 1014.1
20260903095507 25 80 0.0 1.6 0.00 2.87 0.00 95 1014.3
20260903095011 25 63 0.0 1.6 0.00 2.87 0.00 95 1014.3
20260903094508 25 67 0.0 1.6 0.00 2.87 0.00 95 1014.2
20260903094014 25 63 0.0 1.6 0.00 2.87 0.00 95 1014.2
20260903093512 25 105 0.0 1.6 0.00 2.87 0.00 95 1014.2
20260903093048 25 51 0.0 1.6 0.00 2.87 0.00 95 1014.2
20260903092504 25 112 0.0 1.6 0.00 2.87 0.00 95 1014.3
20260903092004 25 40 0.0 0.0 0.00 2.87 0.00 95 1014.3
20260903091509 25 72 0.0 0.0 0.00 2.87 0.00 95 1014.2
20260903091005 25 73 0.0 0.0 0.00 2.87 0.00 94 1014.1
20260903090510 25 88 0.0 0.0 0.00 2.87 0.00 94 1014.1
20260903090026 25 104 0.0 0.0 0.00 2.87 0.00 94 1014.1
20260903085508 25 104 0.0 0.0 0.00 2.87 0.00 94 1014.1
20260903085007 25 97 0.0 0.0 0.00 2.87 0.00 94 1014.1
20260903084529 25 96 0.0 0.0 0.00 2.87 0.00 94 1014.1
20260903084013 25 96 0.0 0.0 0.00 2.87 0.00 94 1014.1
20260903083512 25 103 0.0 0.0 0.00 2.87 0.00 94 1014.0
20260903083019 25 108 0.0 0.0 0.00 2.87 0.00 1014.1
20260903082509 25 89 0.0 0.0 0.00 2.87 0.00 94 1014.1
20260903082017 25 104 0.0 0.0 0.00 2.87 0.00 94 1014.1
20260903081516 25 96 0.0 0.0 0.00 2.87 0.00 94 1014.2
20260903081003 25 67 0.0 0.0 0.00 2.87 0.00 94 1014.3
20260903080504 25 88 0.0 0.0 0.00 2.87 0.00 94 1014.3
20260903080013 25 61 0.0 0.0 0.00 2.87 0.00 94 1014.3
20260903075508 25 77 0.0 0.0 0.00 2.87 0.00 94 1014.3
20260903075005 25 69 0.0 0.0 0.00 2.87 0.00 94 1014.3
20260903074524 25 88 0.0 0.0 0.00 2.87 0.00 94 1014.3
20260903074004 25 88 0.0 0.0 0.00 2.87 0.00 94 1014.3
20260903073508 25 88 0.0 0.0 0.00 2.87 0.00 94 1014.4
20260903073029 25 88 0.0 0.0 0.00 2.87 0.00 94 1014.5
20260903072512 25 88 0.0 0.0 0.00 2.87 0.00 94 1014.5
20260903072007 25 88 0.0 0.0 0.00 2.87 0.00 1014.4
20260903071527 25 88 0.0 0.0 0.00 2.87 0.00 94 1014.5
20260903071015 25 88 0.0 0.0 0.00 2.87 0.00 94 1014.6
20260903070506 25 88 0.0 0.0 0.00 2.87 0.00 94 1014.6
20260903070028 25 88 0.0 0.0 0.00 2.87 0.00 94 1014.7
20260903065504 25 88 0.0 0.0 0.00 2.87 0.00 94 1014.7
20260903065008 25 86 0.0 0.0 0.00 2.87 0.00 94 1014.6
20260903064515 25 85 0.0 0.0 0.00 2.87 0.00 94 1014.7
20260903064008 25 97 0.0 0.0 0.00 2.87 0.00 94 1014.8
20260903063508 25 98 0.0 0.0 0.00 2.87 0.00 94 1014.8
20260903063026 25 98 0.0 0.0 0.00 2.87 0.00 94 1014.7
20260903062512 25 97 0.0 0.0 0.00 2.87 0.00 94 1014.7
20260903062012 25 112 0.0 0.0 0.00 2.87 0.00 94 1014.9
20260903061529 25 101 0.0 1.6 0.00 2.87 0.00 94 1014.9
20260903061011 25 98 0.0 1.6 0.00 2.87 0.00 94 1014.7
20260903060516 25 84 0.0 0.0 0.00 2.87 0.00 94 1014.8
20260903060034 25 53 0.0 0.0 0.00 2.87 0.00 94 1014.9
20260903055518 25 75 0.0 0.0 0.00 2.87 0.00 94 1014.9
20260903055013 25 75 0.0 0.0 0.00 2.87 0.00 1014.9
20260903054523 25 75 0.0 0.0 0.00 2.87 0.00 1015.0
20260903054007 25 77 0.0 0.0 0.00 2.87 0.00 94 1014.9
20260903053506 25 77 0.0 0.0 0.00 2.87 0.00 94 1015.0
20260903053024 25 77 0.0 0.0 0.00 2.87 0.00 94 1015.1
20260903052511 25 77 0.0 0.0 0.00 2.87 0.00 94 1015.2
20260903052014 25 78 0.0 0.0 0.00 2.87 0.00 94 1015.4
20260903051520 25 78 0.0 0.0 0.00 2.87 0.00 94 1015.4
20260903051025 25 86 0.0 0.0 0.00 2.87 0.00 94 1015.3
20260903050519 25 87 0.0 0.0 0.00 2.87 0.00 94 1015.4
20260903050019 25 97 0.0 0.0 0.00 2.87 0.00 94 1015.4
20260903045511 25 97 0.0 0.0 0.00 2.87 0.00 94 1015.5
20260903045014 25 97 0.0 0.0 0.00 2.87 0.00 94 1015.6
20260903044536 25 98 0.0 0.0 0.00 2.87 0.00 94 1015.6
20260903044010 25 99 0.0 0.0 0.00 2.87 0.00 93 1015.6
20260903043514 25 99 0.0 0.0 0.00 2.87 0.00 93 1015.8
20260903043023 25 100 0.0 0.0 0.00 2.87 0.00 93 1015.8
20260903042507 25 100 0.0 0.0 0.00 2.87 0.00 1015.8
20260903042008 25 98 0.0 0.0 0.00 2.87 0.00 93 1015.9
20260903041528 25 98 0.0 0.0 0.00 2.87 0.00 93 1015.9
20260903041012 25 86 0.0 0.0 0.00 2.87 0.00 93 1015.9
20260903040509 25 101 0.0 0.0 0.00 2.87 0.00 93 1015.9
20260903040030 25 104 0.0 0.0 0.00 2.87 0.00 93 1016.0
20260903035512 26 104 0.0 0.0 0.00 2.87 2.87 93 1016.0
20260903035017 26 98 0.0 0.0 0.00 2.87 2.87 93 1016.0
20260903034532 26 100 0.0 1.6 0.00 2.87 2.87 93 1015.9
20260903034015 26 86 0.0 3.2 0.00 2.87 2.87 94 1016.0
20260903033519 26 123 0.0 3.2 0.00 2.87 2.87 1015.8
20260903033031 25 76 0.0 3.2 0.00 2.87 2.87 94 1015.9
20260903032503 25 69 0.0 1.6 0.00 2.87 2.87 94 1015.8
20260903032004 25 63 0.0 0.0 0.00 2.87 2.87 94 1015.9
20260903031520 25 84 0.0 0.0 0.00 2.87 2.87 94 1016.0
20260903031009 25 82 0.0 0.0 0.00 2.87 2.87 94 1015.9
20260903030508 25 38 0.0 0.0 0.00 2.87 2.87 94 1015.9
20260903030007 25 36 0.0 0.0 0.00 2.87 2.87 94 1016.0
20260903025505 25 5 0.0 0.0 0.00 2.87 2.87 94 1016.0
20260903025003 25 5 0.0 0.0 0.00 2.87 2.87 94 1016.2
20260903024509 25 5 0.0 0.0 0.00 2.87 2.87 93 1016.1
20260903024004 25 5 0.0 0.0 0.00 2.87 2.87 93 1016.1
20260903023504 25 5 0.0 0.0 0.00 2.87 2.87 93 1016.1
20260903023006 25 5 0.0 0.0 0.00 2.87 2.87 93 1016.0
20260903022504 25 5 0.0 0.0 0.00 2.87 2.87 93 1016.0
20260903022007 25 5 0.0 0.0 0.00 2.87 2.87 93 1016.1
20260903021508 25 5 0.0 0.0 0.00 2.87 2.87 93 1016.2
20260903021004 25 5 0.0 0.0 0.00 2.87 2.87 93 1016.2
20260903020505 25 5 0.0 0.0 0.00 2.87 2.87 93 1016.1
20260903020028 25 5 0.0 0.0 0.00 2.87 2.87 93 1016.1
20260903015504 25 5 0.0 0.0 0.00 2.87 2.87 93 1016.1
20260903015002 25 33 0.0 0.0 0.00 2.87 2.87 93 1016.0
20260903014506 25 33 0.0 0.0 0.00 2.87 2.87 93 1015.9
20260903014002 25 30 0.0 0.0 0.00 2.87 2.87 93 1015.8